Weather History for PADQ - March, 2013

Change the Weather History Date:

Sunday, March 31, 2013

  Actual Average Record
Temperature  
Mean Temperature 34 °F 34 °F  
Max Temperature 41 °F 40 °F 51 °F (1970)
Min Temperature 26 °F 29 °F 5 °F (2004)
Degree Days  
Heating Degree Days 31 31  
Month to date heating degree days 1018 998  
Since 1 July heating degree days 6939 6871  
Cooling Degree Days 0    
Month to date cooling degree days 0  
Year to date cooling degree days 0  
Moisture  
Dew Point 31 °F    
Average Humidity 0    
Maximum Humidity 0    
Minimum Humidity 0    
Precipitation  
Precipitation 0.02 in 0.17 in 1.37 in (1994)
Month to date precipitation 4.47 5.53  
Year to date precipitation 20.65 19.96  
Snow  
Snow T in 0.40 in 3.70 in (1956)
Month to date snowfall 11.7 11.3  
Since 1 July snowfall 60.1 60.7  
Snow Depth 0.00 in    
Sea Level Pressure  
Sea Level Pressure 30.17 in    
Wind  
Wind Speed 5 mph (NW)    
Max Wind Speed 12 mph    
Max Gust Speed 15 mph    
Visibility 10 miles    
Events Rain , Snow    
T = Trace of Precipitation, MM = Missing Value Source: NWS Daily Summary

Daily Weather History Graph

Daily Weather History Graph

Search for Another Location

Airport or City:

Trip Planner

Search our weather history database for the weather conditions in past years. The results will help you decide how hot, cold, wet, or windy it might be!

Date:

Astronomy

Mar. 31, 2013 Rise Set
Actual Time 7:39 AM AKDT 8:49 PM AKDT
Civil Twilight 6:59 AM AKDT 9:29 PM AKDT
Nautical Twilight 6:10 AM AKDT 10:18 PM AKDT
Astronomical Twilight 5:15 AM AKDT 11:14 PM AKDT
Moon 2:01 AM AKDT (3/31) 9:40 AM AKDT (3/31)
Length of Visible Light 14h 29m
Length of Day
13h 09m
Waning Gibbous, 76% of the Moon is Illuminated
Mar 31
Waning Gibbous
Apr 2
Last Quarter
Apr 10
New
Apr 18
First Quarter
Apr 25
Full

Hourly Weather History & Observations

Time (AKDT) Temp. Windchill Dew Point Humidity Pressure Visibility Wind Dir Wind Speed Gust Speed Precip Events Conditions
12:53 AM 33.1 °F - 30.9 °F 92% 30.19 in 10.0 mi Calm Calm - 0.00 in   Mostly Cloudy
1:53 AM 30.9 °F - 30.0 °F 96% 30.19 in 10.0 mi Calm Calm - N/A   Scattered Clouds
2:33 AM 30.2 °F 26.7 °F 28.4 °F 93% 30.19 in 10.0 mi West 3.5 mph - N/A   Mostly Cloudy
2:53 AM 30.0 °F - 28.9 °F 96% 30.19 in 10.0 mi Calm Calm - N/A   Mostly Cloudy
3:04 AM 28.4 °F - 28.4 °F 100% 30.18 in 10.0 mi Calm Calm - N/A   Scattered Clouds
3:53 AM 28.9 °F 25.2 °F 28.0 °F 96% 30.19 in 10.0 mi West 3.5 mph - N/A   Scattered Clouds
4:53 AM 28.0 °F 22.8 °F 26.1 °F 92% 30.19 in 10.0 mi West 4.6 mph - N/A   Scattered Clouds
5:53 AM 28.0 °F 22.8 °F 27.0 °F 96% 30.18 in 10.0 mi WNW 4.6 mph - N/A   Scattered Clouds
6:53 AM 28.0 °F 21.7 °F 26.1 °F 92% 30.19 in 10.0 mi West 5.8 mph - N/A   Mostly Cloudy
7:53 AM 27.0 °F 20.5 °F 25.0 °F 92% 30.19 in 10.0 mi West 5.8 mph - N/A   Mostly Cloudy
8:53 AM 28.9 °F 23.9 °F 27.0 °F 92% 30.19 in 10.0 mi West 4.6 mph - N/A   Mostly Cloudy
9:53 AM 34.0 °F 28.0 °F 30.9 °F 89% 30.19 in 10.0 mi NW 6.9 mph - N/A   Mostly Cloudy
10:53 AM 36.0 °F 29.6 °F 30.0 °F 79% 30.19 in 10.0 mi WNW 8.1 mph - N/A   Mostly Cloudy
11:53 AM 37.9 °F 34.4 °F 30.0 °F 73% 30.20 in 10.0 mi WNW 4.6 mph - N/A   Mostly Cloudy
12:53 PM 37.9 °F 30.9 °F 30.9 °F 76% 30.19 in 10.0 mi West 10.4 mph - N/A   Mostly Cloudy
1:53 PM 39.9 °F 35.1 °F 28.9 °F 65% 30.19 in 10.0 mi NNW 6.9 mph - N/A   Mostly Cloudy
2:53 PM 39.0 °F 36.8 °F 33.1 °F 79% 30.18 in 10.0 mi Variable 3.5 mph - N/A   Mostly Cloudy
3:53 PM 39.0 °F 34.0 °F 33.1 °F 79% 30.17 in 10.0 mi ENE 6.9 mph - N/A   Mostly Cloudy
4:37 PM 39.2 °F 37.0 °F 33.8 °F 81% 30.16 in 10.0 mi East 3.5 mph - N/A   Mostly Cloudy
4:53 PM 39.0 °F 35.7 °F 33.1 °F 79% 30.16 in 10.0 mi ENE 4.6 mph - N/A   Mostly Cloudy
5:53 PM 39.0 °F 34.0 °F 33.1 °F 79% 30.15 in 10.0 mi Variable 6.9 mph - N/A   Overcast
6:53 PM 37.0 °F 33.3 °F 33.1 °F 86% 30.15 in 10.0 mi NW 4.6 mph - 0.00 in Rain Light Rain
7:28 PM 35.6 °F 29.2 °F 33.8 °F 93% 30.14 in 10.0 mi WNW 8.1 mph - 0.00 in Rain Light Rain
7:53 PM 35.1 °F 32.2 °F 33.1 °F 92% 30.15 in 5.0 mi NNW 3.5 mph - 0.02 in Rain , Snow Light Rain
8:53 PM 35.1 °F 31.0 °F 33.1 °F 92% 30.14 in 10.0 mi WNW 4.6 mph - 0.00 in   Overcast
9:42 PM 35.6 °F 29.9 °F 32.0 °F 87% 30.14 in 10.0 mi NW 6.9 mph - N/A   Mostly Cloudy
9:53 PM 35.1 °F 30.1 °F 32.0 °F 89% 30.15 in 10.0 mi NW 5.8 mph - 0.00 in   Mostly Cloudy
10:39 PM 35.6 °F 30.7 °F 33.8 °F 93% 30.14 in 10.0 mi NW 5.8 mph - 0.00 in Rain Light Rain
10:53 PM 34.0 °F 28.8 °F 33.1 °F 96% 30.15 in 10.0 mi NW 5.8 mph - 0.00 in   Overcast
11:53 PM 34.0 °F - 32.0 °F 92% 30.15 in 10.0 mi Calm Calm - 0.00 in Rain , Snow Light Rain